Retour au catalogue

STARLINK-34661

ActifCommunicationsVLEO
NORAD 64927·PAYLOAD·🇺🇸 United States

Lancé Jul 26, 2025 depuis Cape Canaveral Space Force Station

Loading…

Prochains Passages (prochaines 24 heures)

TLE

FraisSource: CelesTrak SupGP

Époque: Sep 15, 2026, 02:43 UTC

1 64927C 25157Z   26258.11368056 -.00062534  00000+0 -18476-2 0  2588
2 64927  53.1570 182.7446 0001246  80.6260  96.9627 15.34421134    16

Suivez STARLINK-34661 en temps réel avec AllMySat

Download on the App Store